AIST-2

Last updated on Tue Mar 06 2018 00:20:27 GMT+0000 (Greenwich Mean Time)

1 39133U 13015D 18064.88663625 .00000139 00000-0 22425-4 0 9994 2 39133 64.8735 178.3735 0031324 238.5035 121.3023 15.04497929267677
UTC large
Height (km)
Speed (km/s)
/
Latitude / Longitude
Inclination (degrees)
Orbital Period (minutes)
Azimuth
Elevation
Range (km)
Doppler Factor

Next 0 passes for location: London (51.5072 / 0.1276)

Sorry there are no passes over London.